DLH2YM EDDF-EDDW

Flight info

Callsign DLH2YM
Flight time 0h 40m
Altitude 22000
Route MARUN9S MARUN Y153 WRB N850 NIE Z88 VERED VERED3P
Aircraft A320/M-SDE2E3FGIJ1LORWXYZ/HB1

Departure

Time 2026-05-05 22:55
Airport Frankfurt Main Airport (EDDF)

Arrival

Time 2026-05-05 23:35
Airport Bremen Airport (EDDW)
Time Latitude Longitude Altitude Speed Heading
2026-05-05 22:35 50.04393 8.57031 362 ft 0 kts 160°
2026-05-05 22:52 50.04389 8.57033 360 ft 3 kts 160°
2026-05-05 22:52 50.04349 8.57056 362 ft 9 kts 160°
2026-05-05 22:52 50.04334 8.57146 362 ft 13 kts 69°
2026-05-05 22:52 50.04373 8.57307 363 ft 19 kts 69°
2026-05-05 22:53 50.04425 8.57526 361 ft 24 kts 71°
2026-05-05 22:53 50.04483 8.57770 365 ft 25 kts 70°
2026-05-05 22:53 50.04541 8.58014 363 ft 18 kts 69°
2026-05-05 22:53 50.04572 8.58161 367 ft 9 kts 91°
2026-05-05 22:54 50.04539 8.58211 366 ft 7 kts 151°
2026-05-05 22:54 50.04472 8.58251 370 ft 14 kts 161°
2026-05-05 22:54 50.04390 8.58178 370 ft 19 kts 250°
2026-05-05 22:54 50.04347 8.58002 366 ft 40 kts 249°
2026-05-05 22:55 50.04064 8.56817 361 ft 131 kts 249°
2026-05-05 22:55 50.03675 8.55262 531 ft 165 kts 245°
2026-05-05 22:55 50.03263 8.53635 1332 ft 160 kts 248°
2026-05-05 22:55 50.02866 8.51977 1963 ft 172 kts 248°
2026-05-05 22:56 50.02354 8.50195 2420 ft 190 kts 235°
2026-05-05 22:56 50.01380 8.48745 3014 ft 199 kts 212°
2026-05-05 22:56 50.00074 8.48005 3737 ft 203 kts 191°
2026-05-05 22:56 49.98671 8.47723 4497 ft 203 kts 191°
2026-05-05 22:57 49.97270 8.47401 5192 ft 205 kts 191°
2026-05-05 22:57 49.96334 8.47190 5629 ft 207 kts 192°
2026-05-05 22:57 49.94979 8.46271 5967 ft 228 kts 223°
2026-05-05 22:57 49.94151 8.44083 6395 ft 250 kts 257°
2026-05-05 22:58 49.94292 8.41319 6991 ft 269 kts 289°
2026-05-05 22:58 49.95279 8.38832 7925 ft 275 kts 310°
2026-05-05 22:58 49.96849 8.37092 8877 ft 285 kts 335°
2026-05-05 22:58 49.98836 8.36641 9759 ft 297 kts 360°
2026-05-05 22:59 50.00933 8.36876 10422 ft 309 kts
2026-05-05 22:59 50.03150 8.37166 10841 ft 329 kts
2026-05-05 22:59 50.05465 8.37489 11553 ft 338 kts
2026-05-05 22:59 50.07822 8.37817 12361 ft 342 kts
2026-05-05 23:00 50.12635 8.38437 13941 ft 351 kts
2026-05-05 23:00 50.15086 8.38625 14665 ft 354 kts 360°
2026-05-05 23:00 50.17563 8.38717 15363 ft 358 kts 359°
2026-05-05 23:01 50.20070 8.38763 16043 ft 362 kts 359°
2026-05-05 23:01 50.22605 8.38801 16716 ft 367 kts 359°
2026-05-05 23:01 50.25173 8.38856 17383 ft 371 kts 360°
2026-05-05 23:01 50.27769 8.38929 18072 ft 376 kts
2026-05-05 23:02 50.30396 8.39015 18656 ft 380 kts
2026-05-05 23:02 50.33052 8.39108 19236 ft 383 kts
2026-05-05 23:02 50.35730 8.39209 19815 ft 387 kts
2026-05-05 23:02 50.38440 8.39318 20380 ft 391 kts
2026-05-05 23:03 50.41143 8.39427 20933 ft 395 kts
2026-05-05 23:03 50.43912 8.39534 21511 ft 399 kts
2026-05-05 23:03 50.46700 8.39632 21749 ft 401 kts
2026-05-05 23:03 50.49447 8.39723 21797 ft 387 kts
2026-05-05 23:04 50.52093 8.39807 21806 ft 376 kts
2026-05-05 23:04 50.54694 8.39894 21805 ft 373 kts
2026-05-05 23:04 50.57282 8.39987 21801 ft 372 kts
2026-05-05 23:04 50.59863 8.40083 21801 ft 370 kts
2026-05-05 23:05 50.62435 8.40180 21802 ft 369 kts
2026-05-05 23:05 50.65006 8.40276 21806 ft 369 kts
2026-05-05 23:05 50.67579 8.40368 21805 ft 369 kts
2026-05-05 23:05 50.70149 8.40459 21805 ft 369 kts
2026-05-05 23:06 50.72686 8.40550 21813 ft 369 kts
2026-05-05 23:06 50.75259 8.40644 21809 ft 369 kts
2026-05-05 23:06 50.77832 8.40737 21805 ft 369 kts
2026-05-05 23:06 50.80397 8.40828 21805 ft 369 kts
2026-05-05 23:07 50.82967 8.40919 21814 ft 369 kts
2026-05-05 23:07 50.85543 8.41009 21805 ft 369 kts
2026-05-05 23:07 50.88114 8.41101 21814 ft 369 kts
2026-05-05 23:07 50.90684 8.41193 21811 ft 369 kts
2026-05-05 23:08 50.93223 8.41283 21807 ft 369 kts
2026-05-05 23:08 50.95792 8.41372 21808 ft 369 kts
2026-05-05 23:08 50.98364 8.41462 21802 ft 369 kts
2026-05-05 23:08 51.00941 8.41554 21802 ft 369 kts
2026-05-05 23:09 51.03512 8.41653 21809 ft 369 kts
2026-05-05 23:09 51.06082 8.41751 21810 ft 369 kts
2026-05-05 23:09 51.08613 8.41852 21811 ft 368 kts
2026-05-05 23:09 51.11210 8.41953 21812 ft 368 kts
2026-05-05 23:10 51.13737 8.42042 21818 ft 368 kts
2026-05-05 23:10 51.16331 8.42133 21812 ft 368 kts
2026-05-05 23:10 51.18859 8.42224 21817 ft 368 kts
2026-05-05 23:10 51.21422 8.42314 21810 ft 368 kts
2026-05-05 23:11 51.23983 8.42401 21813 ft 368 kts
2026-05-05 23:11 51.26543 8.42496 21811 ft 367 kts
2026-05-05 23:11 51.29102 8.42596 21805 ft 368 kts
2026-05-05 23:11 51.31658 8.42693 21800 ft 368 kts
2026-05-05 23:12 51.34187 8.42788 21800 ft 368 kts
2026-05-05 23:12 51.36746 8.42885 21812 ft 368 kts
2026-05-05 23:12 51.39310 8.42983 21799 ft 368 kts
2026-05-05 23:12 51.41872 8.43082 21802 ft 368 kts
2026-05-05 23:13 51.44430 8.43178 21802 ft 368 kts
2026-05-05 23:13 51.46988 8.43268 21803 ft 368 kts
2026-05-05 23:13 51.49546 8.43361 21803 ft 368 kts
2026-05-05 23:13 51.52108 8.43459 21809 ft 368 kts
2026-05-05 23:14 51.54669 8.43559 21803 ft 368 kts
2026-05-05 23:14 51.57232 8.43658 21793 ft 369 kts
2026-05-05 23:14 51.59798 8.43752 21790 ft 369 kts
2026-05-05 23:14 51.62364 8.43847 21790 ft 369 kts
2026-05-05 23:15 51.64937 8.43940 21791 ft 369 kts
2026-05-05 23:15 51.67508 8.44031 21795 ft 370 kts
2026-05-05 23:15 51.70045 8.44121 21794 ft 370 kts
2026-05-05 23:15 51.72617 8.44213 21795 ft 370 kts
2026-05-05 23:16 51.75189 8.44310 21796 ft 370 kts
2026-05-05 23:16 51.77763 8.44404 21800 ft 370 kts
2026-05-05 23:16 51.80341 8.44497 21801 ft 371 kts
2026-05-05 23:16 51.82922 8.44588 21802 ft 371 kts
2026-05-05 23:17 51.85506 8.44686 21800 ft 371 kts
2026-05-05 23:17 51.88075 8.44787 21528 ft 367 kts
2026-05-05 23:17 51.90609 8.44889 21198 ft 362 kts
2026-05-05 23:17 51.93114 8.44987 20866 ft 359 kts
2026-05-05 23:18 51.95600 8.45081 20535 ft 356 kts
2026-05-05 23:18 51.98073 8.45175 20214 ft 354 kts
2026-05-05 23:18 52.00530 8.45267 19897 ft 352 kts
2026-05-05 23:18 52.02977 8.45359 19577 ft 350 kts
2026-05-05 23:19 52.05407 8.45449 19262 ft 349 kts
2026-05-05 23:19 52.07824 8.45539 18959 ft 347 kts
2026-05-05 23:19 52.10230 8.45630 18649 ft 345 kts
2026-05-05 23:19 52.12618 8.45720 18344 ft 343 kts
2026-05-05 23:20 52.15000 8.45806 18029 ft 341 kts
2026-05-05 23:20 52.17365 8.45895 17678 ft 339 kts
2026-05-05 23:20 52.19718 8.45984 17329 ft 338 kts
2026-05-05 23:20 52.22057 8.46075 16990 ft 336 kts
2026-05-05 23:21 52.24388 8.46164 16651 ft 334 kts
2026-05-05 23:21 52.26704 8.46253 16315 ft 332 kts
2026-05-05 23:21 52.29011 8.46344 15986 ft 331 kts
2026-05-05 23:21 52.31306 8.46434 15659 ft 329 kts
2026-05-05 23:22 52.33586 8.46518 15332 ft 327 kts
2026-05-05 23:22 52.35858 8.46600 15008 ft 326 kts
2026-05-05 23:22 52.38117 8.46688 14704 ft 324 kts
2026-05-05 23:22 52.40363 8.46778 14387 ft 322 kts
2026-05-05 23:23 52.42596 8.46872 14075 ft 320 kts
2026-05-05 23:23 52.44788 8.46964 13771 ft 319 kts
2026-05-05 23:23 52.46996 8.47048 13446 ft 316 kts 360°
2026-05-05 23:23 52.49192 8.47133 13063 ft 315 kts 360°
2026-05-05 23:24 52.51377 8.47218 12694 ft 313 kts 360°
2026-05-05 23:24 52.53550 8.47301 12329 ft 312 kts
2026-05-05 23:24 52.55713 8.47383 11968 ft 310 kts
2026-05-05 23:24 52.57860 8.47462 11613 ft 308 kts
2026-05-05 23:25 52.59992 8.47543 11258 ft 306 kts
2026-05-05 23:25 52.62108 8.47623 10910 ft 303 kts
2026-05-05 23:25 52.64209 8.47704 10565 ft 301 kts
2026-05-05 23:25 52.66293 8.47785 10230 ft 298 kts
2026-05-05 23:26 52.68360 8.47870 9891 ft 296 kts
2026-05-05 23:26 52.70409 8.47952 9535 ft 293 kts
2026-05-05 23:26 52.72443 8.48030 9168 ft 290 kts
2026-05-05 23:26 52.74453 8.48109 8799 ft 288 kts
2026-05-05 23:27 52.76444 8.48186 8442 ft 285 kts
2026-05-05 23:27 52.78416 8.48264 8092 ft 282 kts
2026-05-05 23:27 52.80373 8.48342 7764 ft 280 kts
2026-05-05 23:27 52.82316 8.48422 7439 ft 279 kts
2026-05-05 23:28 52.84248 8.48497 7115 ft 277 kts
2026-05-05 23:28 52.86169 8.48575 6798 ft 276 kts
2026-05-05 23:28 52.88057 8.48650 6485 ft 274 kts
2026-05-05 23:28 52.89961 8.48724 6162 ft 272 kts
2026-05-05 23:29 52.91833 8.48797 5821 ft 265 kts
2026-05-05 23:29 52.93622 8.48864 5487 ft 249 kts
2026-05-05 23:29 52.95311 8.48929 5153 ft 237 kts
2026-05-05 23:29 52.96921 8.48989 4831 ft 227 kts
2026-05-05 23:30 52.98473 8.49049 4491 ft 220 kts
2026-05-05 23:30 52.99979 8.49108 4159 ft 214 kts
2026-05-05 23:30 53.01449 8.49169 3822 ft 208 kts
2026-05-05 23:30 53.02806 8.49715 3485 ft 198 kts 33°
2026-05-05 23:31 53.03749 8.51274 3183 ft 189 kts 62°
2026-05-05 23:31 53.04079 8.53307 2959 ft 180 kts 85°
2026-05-05 23:31 53.04125 8.55348 2700 ft 174 kts 85°
2026-05-05 23:31 53.04175 8.57325 2452 ft 168 kts 85°
2026-05-05 23:32 53.04219 8.59234 2216 ft 161 kts 85°
2026-05-05 23:32 53.04264 8.60993 2011 ft 146 kts 85°
2026-05-05 23:32 53.04305 8.62624 1779 ft 136 kts 85°
2026-05-05 23:32 53.04339 8.64092 1656 ft 119 kts 84°
2026-05-05 23:33 53.04375 8.65488 1482 ft 124 kts 85°
2026-05-05 23:33 53.04411 8.66942 1351 ft 128 kts 85°
2026-05-05 23:33 53.04449 8.68447 1155 ft 131 kts 85°
2026-05-05 23:33 53.04483 8.69921 958 ft 126 kts 85°
2026-05-05 23:34 53.04518 8.71396 762 ft 128 kts 84°
2026-05-05 23:34 53.04556 8.72884 603 ft 129 kts 85°
2026-05-05 23:34 53.04588 8.74359 421 ft 128 kts 86°
2026-05-05 23:34 53.04622 8.75860 260 ft 130 kts 84°
2026-05-05 23:35 53.04657 8.77370 65 ft 130 kts 86°
2026-05-05 23:35 53.04688 8.78693 20 ft 80 kts 89°
2026-05-05 23:35 53.04696 8.79152 19 ft 18 kts 88°
2026-05-05 23:35 53.04755 8.79294 19 ft 16 kts 12°
2026-05-05 23:36 53.04853 8.79267 22 ft 11 kts 318°
2026-05-05 23:36 53.04861 8.79142 20 ft 12 kts 268°
2026-05-05 23:36 53.04857 8.78998 17 ft 8 kts 268°
2026-05-05 23:36 53.04856 8.78954 16 ft 4 kts 268°
2026-05-05 23:37 53.04866 8.78904 18 ft 8 kts 305°
2026-05-05 23:37 53.04925 8.78817 17 ft 14 kts 318°
2026-05-05 23:37 53.04991 8.78714 17 ft 13 kts 303°
2026-05-05 23:37 53.05023 8.78577 20 ft 11 kts 302°
2026-05-05 23:38 53.05068 8.78512 19 ft 3 kts 321°
2026-05-05 23:38 53.05083 8.78491 19 ft 4 kts 313°
2026-05-05 23:38 53.05076 8.78462 19 ft 1 kts 228°
2026-05-05 23:38 53.05053 8.78420 19 ft 7 kts 229°
2026-05-05 23:39 53.05049 8.78411 19 ft 0 kts 229°
2026-05-05 23:40 53.05045 8.78405 21 ft 0 kts 48°